Simultaneous Nadir Overpasses (SNOs) Predictions

Prediction of SNOs between METOP-B and NOAA-19 Satellite Orbit:

Table of predicted SNOs for the next 14.0 days since TLE Epoch: 2/19/2022
Index Date (METOP-B) Time (METOP-B) Lat,Lon (METOP-B) SZA (METOP-B ) Date (NOAA-19) Time (NOAA-19) Lat,Lon (NOAA-19) SZA (NOAA-19 ) Distance(km) Time Diff (sec)
1 02/22/2022 16:31:53 80.78, -36.01 91.87 02/22/2022 16:30:48 80.78, -36.17 91.83 2.89 65
2 02/22/2022 17:22:35 -80.77, 131.12 88.17 02/22/2022 17:21:43 -80.78, 131.17 88.18 1.13 52
3 02/22/2022 18:13:15 80.77, -61.50 91.82 02/22/2022 18:12:48 80.78, -61.63 91.81 2.49 27
4 02/22/2022 19:03:57 -80.76, 105.63 88.22 02/22/2022 19:03:43 -80.78, 105.71 88.21 2.11 14
5 02/22/2022 19:54:37 80.76, -86.99 91.78 02/22/2022 19:54:48 80.78, -87.10 91.79 2.47 11
6 02/22/2022 20:45:18 -80.77, 80.49 88.22 02/22/2022 20:45:42 -80.77, 80.61 88.21 2.24 24
7 02/22/2022 21:35:58 80.78,-112.13 91.78 02/22/2022 21:36:47 80.77,-112.20 91.78 1.57 49



Historial Predications of SNOs between METOP-B and NOAA-19
